METEOR 2-11 DEB, 40706

Orbit data source: Space-Track

METEOR 2-11 DEB, 40706 is space debris in LEO originally from a launch on Thu, 05 Jul 1984 UTC launched from the Plesetsk Missile And Space Complex (PKMTR). Debris objects in space refer to the collection of defunct objects orbiting the Earth. Examples of debris include non-operational satellites, rocket bodies, and fragments generated from explosions, collisions, or faulty payload assembly.

Loading next visibility...
Identifier
40706, 1984-072H
Orbit
LEO
Country
Flag of CISCIS
Related business
Manufacturer
Unknown
Mission
Spacecraft
Bus & Motor
Unknown
Mass
Unknown
Launch date (UTC)
1984-07-05 (42 years ago)
Launch vehicle
Unknown
Launch site
Plesetsk Missile And Space Complex (PKMTR)
Object type
Payload
Rocket body
Debris
Shape & HBR
Unknown shape, 0.1 m
Radar Cross Section
Small (<0.1 m²)

Expand to show TLE details & history
Last TLE update: 6 hours ago

TLE from 6 hours ago
0 METEOR 2-11 DEB
1 40706U 84072H   26130.46169964  .00001530  00000-0  10630-2 0  9996
2 40706  82.5218  39.1957 0016366  60.1723 300.1069 13.98204476583931
Epoch: 2026-05-10T11:04Z
TLE epoch observation values (Epoch: 2026-05-10T11:04:50.848Z)
Latitude
-0.00009°
Longitude
4.71938°
Altitude
896.979 km
Speed
7.407 km/s
True Right ascension
02h 36m 46s
True Declination
0° 00' 00"
Sunlit
Object was in daylight at epoch
Visualization orbit readout
Latitude
Unknown
Longitude
Unknown
Altitude
Unknown
Speed
Unknown
Apparent Right ascension
Unknown
Apparent Declination
Unknown
Sunlit
N/A
Visualization observer readout
Local Sidereal Time
01:37:45
Azimuth
Unknown
Elevation
Unknown
Doppler factor
Unknown
Orbital elements
Apogee altitude
909.06 km
Perigee altitude
885.246 km
Semi-major axis
7,275.29 km
Eccentricity
0.00164
Inclination
82.5218°
RAAN
39.1957°
Arg. of periapsis
60.1723°
True anomaly
299.94449°
Mean anomaly
300.1069°
Eccentric anomaly
300.02571°
Mean motion
3.49758 °/min
Orbital period
102.93 mins
BSTAR
0.001063
Loading maneuver chart data...
Computing Atmospheric mass density...
Loading historical data...
Loading historical data...
Loading historical data...
Loading historical data...
Loading historical data...
Loading historical data...
Loading historical data...

Documentation

Showing up to 5 results
|